Regional Weather Roundup
Issued by NWS Northern Indiana

Home | Current Version | Previous Version | Graphics & Text | Print | Product List | Glossary On
Versions: 1 2 3 4 5 6 7 8 9 10 11 12 13 14 15 16 17 18 19 20 21 22 23 24 25 26 27 28 29 30 31 32 33 34 35 36 37 38 39 40 41 42 43 44 45 46 47 48 49 50
000
ASUS43 KIWX 172200
RWRIWX

KIWX WEATHER ROUNDUP
NATIONAL WEATHER SERVICE NORTHERN INDIANA
600 PM EDT THU APR 17 2014

NOTE: "FAIR" INDICATES FEW OR NO CLOUDS BELOW 12,000 FEET WITH NO
SIGNIFICANT WEATHER AND/OR OBSTRUCTIONS TO VISIBILITY.

* THESE STATIONS ARE NOT UNDER NWS QUALITY CONTROL. THEY ALSO MAY NOT
  REPORT WEATHER SUCH AS PRECIPITATION OR FOG.

INZ001>027-172300-
NORTHERN INDIANA

CITY           SKY/WX    TMP DP  RH WIND       PRES   REMARKS
GARY*          CLOUDY    63  36  36 W14       30.20R
VALPARAISO     CLOUDY    63  36  36 SW14      30.20S
SOUTH BEND     CLOUDY    65  36  34 SW17G25   30.20F
ELKHART*       SUNNY     64  32  29 SW12G20   30.20S
GOSHEN         PTSUNNY   64  35  34 SW15      30.21S
ANGOLA*        SUNNY     63  36  36 W10       30.21S
FORT WAYNE     PTSUNNY   64  29  26 SW15      30.24R
PERU/GRISSOM   MOSUNNY   67  37  33 W16       30.22F

$$
INZ028>050-172300-
CENTRAL INDIANA

CITY           SKY/WX    TMP DP  RH WIND       PRES   REMARKS
LAFAYETTE      MOSUNNY   65  35  33 SW7       30.21F
KOKOMO*        SUNNY     64  36  34 SW13G18   30.23S
MUNCIE*        PTSUNNY   66  30  26 SW10G16   30.24S
INDIANAPOLIS   PTSUNNY   63  33  32 SW12      30.23F

$$
MIZ043>046-050>051-056>058-064>065-071>073-077>080-172300-
SOUTHWEST LOWER MICHIGAN

CITY           SKY/WX    TMP DP  RH WIND       PRES   REMARKS
BATTLE CREEK   PTSUNNY   64  34  32 SW14G23   30.19S
BENTON HARBOR  CLOUDY    57  36  45 W10       30.20S
COLDWATER*     PTSUNNY   61  31  31 SW14G20   30.21R
HILLSDALE*     MOSUNNY   64  29  26 SW9G20    30.22S
HOLLAND        MOSUNNY   58  36  43 W10       30.21S
GRAND RAPIDS   PTSUNNY   60  36  40 W18       30.20R
KALAMAZOO      PTSUNNY   65  34  31 S15       30.19R
STURGIS*       PTSUNNY   63  36  36 SW17      30.21R
THREE RIVERS*  FAIR      65  33  29 SW17G23   30.20S

$$
OHZ001>008-015>018-024>025-172300-
NORTHWEST OHIO

CITY           SKY/WX    TMP DP  RH WIND       PRES   REMARKS
DEFIANCE       MOSUNNY   68  30  24 S17G26    30.23R
FINDLAY        MOSUNNY   66  36  32 S17       30.24S
TOLEDO EXPRESS MOSUNNY   66  29  24 S13G22    30.23S
TOLEDO METCALF SUNNY     66  32  28 SW14      30.24F
LIMA           SUNNY     65  33  30 S13G26    30.25S

$$
&&



USA.gov is the U.S. government's official web portal to all federal, state and local government web resources and services.